This demonstration page uses our WeatherBlox Daily Observations layout. Learn more.

Left ArrowRight Arrow

39.92423, -83.80882

Hourly Observations for December 8, 2021

Temp ( °F °C ) Dew Point ( °F °C ) Humidity (%) Winds ( mph kmh ) Pressure ( in mb ) Visibility ( mi km ) Precip ( " mm )
12:14 am 00:14 Cloudy 23 -5 21 -6 93 93 SSW 5 7 30.17 1022 9 14 N/A
12:56 am 00:56 Cloudy 23 -5 22 -5.6 96 96 S 3 6 30.12 1020 10 16 N/A
1:11 am 01:11 Cloudy 23 -5 21 -6 93 93 N N/A 30.15 1021 10 16 N/A
1:44 am 01:44 Cloudy with Light Snow 23 -5 21 -6 93 93 SW 3 6 30.15 1021 9 14 N/A
1:56 am 01:56 Cloudy with Light Snow 23 -5 22 -5.6 96 96 SSW 3 6 30.11 1020 9 14 N/A
2:06 am 02:06 Cloudy with Light Snow 23 -5 21 -6 93 93 SSE 3 6 30.13 1020 9 14 N/A
2:56 am 02:56 Cloudy 23 -5 22 -5.6 96 96 SSW 5 7 30.10 1019 10 16 N/A
3:56 am 03:56 Cloudy 23 -5 22 -5.6 96 96 SSW 6 9 30.09 1019 10 16 N/A
4:18 am 04:18 Cloudy 23 -5 23 -5 100 100 S 3 6 30.10 1019 10 16 N/A
4:26 am 04:26 Cloudy 23 -5 23 -5 100 100 SSW 3 6 30.10 1019 10 16 N/A
4:56 am 04:56 Cloudy with Light Snow 23 -5 23 -5 100 100 SSW 3 6 30.05 1018 9 14 N/A
5:52 am 05:52 Cloudy with Light Snow 25 -4 25 -4 100 100 S 3 6 30.06 1018 9 14 N/A
5:56 am 05:56 Cloudy with Light Snow 24 -4.4 24 -4.4 100 100 N N/A 30.03 1017 9 14 N/A
6:11 am 06:11 Cloudy 25 -4 25 -4 100 100 S 5 7 30.06 1018 10 16 N/A
6:42 am 06:42 Cloudy 25 -4 25 -4 100 100 S 6 9 30.06 1018 10 16 N/A
6:51 am 06:51 Cloudy with Light Snow 25 -4 25 -4 100 100 SW 5 7 30.07 1018 9 14 N/A
6:56 am 06:56 Cloudy with Light Snow 24 -4.4 24 -4.4 100 100 SSW 5 7 30.04 1017 9 14 N/A
7:06 am 07:06 Cloudy 25 -4 25 -4 100 100 SSW 6 9 30.07 1018 10 16 N/A
7:56 am 07:56 Cloudy 24 -4.4 24 -4.4 100 100 SSW 5 7 30.04 1017 10 16 N/A
8:56 am 08:56 Cloudy 25 -3.9 25 -3.9 100 100 SSW 6 9 30.05 1018 9 14 N/A
9:30 am 09:30 Mostly Cloudy 27 -3 27 -3 100 100 SW 7 11 30.06 1018 10 16 N/A
9:44 am 09:44 Mostly Cloudy 27 -3 27 -3 100 100 SSW 8 13 30.06 1018 10 16 N/A
9:56 am 09:56 Mostly Cloudy 26 -3.3 26 -3.3 100 100 SW 7 11 30.04 1017 10 16 N/A
10:45 am 10:45 Mostly Cloudy 28 -2 27 -3 93 93 WSW 8 13 30.05 1018 10 16 N/A
10:56 am 10:56 Mostly Cloudy 29 -1.7 27 -2.8 92 92 SW 8 13 30.03 1017 10 16 N/A
11:07 am 11:07 Mostly Cloudy 28 -2 27 -3 93 93 SW 9 15 30.04 1017 10 16 N/A
11:56 am 11:56 Mostly Sunny 33 0.6 28 -2.2 82 82 SW 8 13 30.01 1016 10 16 N/A
12:51 pm 12:51 Mostly Cloudy 34 1 27 -3 75 75 WSW 12 19 30.00 1016 10 16 N/A
12:56 pm 12:56 Mostly Cloudy 34 1.1 28 -2.2 79 79 WSW 9 15 29.99 1016 10 16 N/A
1:43 pm 13:43 Mostly Cloudy 36 2 27 -3 70 70 W 12 19 29.99 1016 10 16 N/A
1:56 pm 13:56 Partly Cloudy 36 2.2 26 -3.3 67 67 W 12 19 29.99 1016 10 16 N/A
2:56 pm 14:56 Sunny 36 2.2 26 -3.3 67 67 WSW 10 17 29.99 1016 10 16 N/A
3:56 pm 15:56 Cloudy 36 2.2 26 -3.3 67 67 WSW 14 22 30.01 1016 10 16 N/A
4:56 pm 16:56 Cloudy 35 1.7 26 -3.3 70 70 W 9 15 30.03 1017 10 16 N/A
5:56 pm 17:56 Mostly Clear 31 -0.6 27 -2.8 85 85 W 7 11 30.06 1018 10 16 N/A
6:56 pm 18:56 Cloudy 32 undefined 27 -2.8 82 82 W 8 13 30.10 1019 10 16 N/A
7:56 pm 19:56 Mostly Cloudy 30 -1.1 25 -3.9 82 82 NW 6 9 30.11 1020 10 16 N/A
8:56 pm 20:56 Clear 28 -2.2 25 -3.9 88 88 W 5 7 30.14 1021 10 16 N/A
9:56 pm 21:56 Clear 25 -3.9 22 -5.6 88 88 NE 3 6 30.11 1020 10 16 N/A
10:56 pm 22:56 Clear 26 -3.3 24 -4.4 92 92 SE 5 7 30.10 1019 10 16 N/A
11:56 pm 23:56 Clear 23 -5 23 -5 100 100 SE 3 6 30.11 1020 10 16 N/A

Powered by AerisWeather